Waarnemingen

Advertentie
Mijn weer
La Coruna/Alvedro, Spanje (8002): temperatuur & dauwpunt: 10.01.2018 10:00:00 - 16.01.2018 10:00:00 (CET)La Coruna/Alvedro, Spanje (8002): windsnelheid: 10.01.2018 10:00:00 - 16.01.2018 10:00:00 (CET)La Coruna/Alvedro, Spanje (8002): windrichting: 10.01.2018 10:00:00 - 16.01.2018 10:00:00 (CET)La Coruna/Alvedro, Spanje (8002): luchtdruk: 10.01.2018 10:00:00 - 16.01.2018 10:00:00 (CET)La Coruna/Alvedro, Spanje (8002): zicht: 10.01.2018 10:00:00 - 16.01.2018 10:00:00 (CET)
Datum & Tijd tt [°C] td [°C] ff [km/u] ff [kn] dd ppp [hPa] vv [km]
16.01.2018 10:00:00 - - - - - - -
16.01.2018 09:00:00 12,6 10,5 15 8 WZW 1027,6 7
16.01.2018 08:00:00 12,6 11,0 8 4 W 1027,1 7
16.01.2018 07:00:00 12,3 11,2 9 5 ZW 1026,4 7
16.01.2018 06:00:00 12,0 11,2 2 1 - 1026,8 2,0
16.01.2018 05:00:00 12,1 11,2 5 3 ZW 1026,7 4,4
16.01.2018 04:00:00 12,3 11,4 2 1 - 1026,7 10
16.01.2018 03:00:00 12,0 11,4 5 3 WZW 1026,8 7
16.01.2018 02:00:00 11,4 10,9 5 3 ZZW 1027,1 4,7
16.01.2018 01:00:00 11,2 10,4 13 7 ZZW 1027,1 3,0
16.01.2018 00:00:00 11,1 10,3 13 7 ZZW 1026,8 4,5
15.01.2018 23:00:00 11,3 10,0 13 7 ZZW 1026,4 3,0
15.01.2018 22:00:00 11,8 9,5 18 10 ZZW 1025,7 10
15.01.2018 21:00:00 11,8 9,2 18 10 ZZW 1025,1 10
15.01.2018 20:00:00 11,5 9,1 21 11 ZW 1025,0 10
15.01.2018 19:00:00 11,5 8,7 21 11 ZZW 1024,8 10
15.01.2018 18:00:00 11,6 8,8 24 13 ZZW 1024,3 10
15.01.2018 17:00:00 11,8 8,5 22 12 ZW 1024,3 10
15.01.2018 16:00:00 11,7 8,3 26 14 ZW 1023,9 10
15.01.2018 15:00:00 11,0 7,9 22 12 ZZW 1024,5 10
15.01.2018 14:00:00 10,4 7,0 22 12 ZZW 1025,3 10
15.01.2018 13:00:00 9,4 6,3 26 14 ZZW 1026,2 10
15.01.2018 12:00:00 8,4 5,5 28 15 ZW 1026,9 10
15.01.2018 11:00:00 7,9 5,2 26 14 ZW 1026,9 10
15.01.2018 10:00:00 6,4 4,7 15 8 Z 1026,2 10
15.01.2018 09:00:00 5,4 4,1 13 7 Z 1026,4 10
15.01.2018 08:00:00 4,5 3,8 15 8 Z 1025,9 10
15.01.2018 07:00:00 4,1 3,7 13 7 Z 1026,1 10
15.01.2018 06:00:00 3,2 2,9 13 7 Z 1025,9 10
15.01.2018 05:00:00 3,0 2,7 11 6 Z 1025,9 10
15.01.2018 04:00:00 2,3 2,0 8 4 Z 1026,0 8
15.01.2018 03:00:00 2,2 1,9 5 3 Z 1025,7 9
15.01.2018 02:00:00 2,4 2,1 8 4 Z 1026,1 6
15.01.2018 01:00:00 2,6 2,3 9 5 Z 1026,2 4,0
15.01.2018 00:00:00 3,1 2,7 15 8 Z 1026,1 7
14.01.2018 23:00:00 3,7 3,3 9 5 Z 1026,0 7
14.01.2018 22:00:00 4,4 3,8 9 5 Z 1025,2 7
14.01.2018 21:00:00 5,2 4,5 4 2 Z 1024,6 10
14.01.2018 20:00:00 6,4 5,0 5 3 Z 1023,8 10
14.01.2018 19:00:00 7,9 5,2 2 1 W 1023,2 10
14.01.2018 18:00:00 9,1 5,8 2 1 NW 1022,3 10
14.01.2018 17:00:00 9,7 5,6 5 3 NNO 1021,6 10
14.01.2018 16:00:00 11,3 4,0 4 2 - 1020,9 10
14.01.2018 15:00:00 11,5 4,0 5 3 ZW 1020,6 10
14.01.2018 14:00:00 10,9 5,1 8 4 WZW 1021,0 10
14.01.2018 13:00:00 9,7 5,3 8 4 ZZO 1021,6 10
14.01.2018 12:00:00 8,1 5,2 8 4 ZZO 1021,5 10
14.01.2018 11:00:00 5,8 4,3 4 2 - 1021,0 10
14.01.2018 10:00:00 3,6 3,0 8 4 Z 1020,4 10
14.01.2018 09:00:00 2,8 2,4 8 4 ZZO 1020,1 10
14.01.2018 08:00:00 2,9 2,5 5 3 ZZO 1019,5 10
14.01.2018 07:00:00 3,3 2,7 11 6 Z 1018,9 10
14.01.2018 06:00:00 3,6 3,0 9 5 Z 1019,0 10
14.01.2018 05:00:00 4,4 3,8 11 6 Z 1019,2 10
14.01.2018 04:00:00 4,7 3,8 8 4 ZO 1019,2 10
14.01.2018 03:00:00 5,0 4,3 9 5 O 1018,7 10
14.01.2018 02:00:00 5,5 4,6 9 5 Z 1018,7 10
14.01.2018 01:00:00 5,8 4,8 5 3 ZZW 1018,8 10
14.01.2018 00:00:00 5,6 4,7 5 3 ZW 1018,6 10
13.01.2018 23:00:00 6,2 5,5 2 1 - 1018,4 10
13.01.2018 22:00:00 6,6 5,2 8 4 ZW 1018,4 10
13.01.2018 21:00:00 6,1 5,2 11 6 Z 1017,8 10
13.01.2018 20:00:00 6,8 5,6 5 3 O 1017,6 10
13.01.2018 19:00:00 7,7 5,2 8 4 WZW 1016,8 10
13.01.2018 18:00:00 9,1 5,5 13 7 ZW 1016,0 10
13.01.2018 17:00:00 10,4 5,4 9 5 WZW 1015,6 10
13.01.2018 16:00:00 11,5 5,7 9 5 Z 1015,4 10
13.01.2018 15:00:00 9,5 6,9 5 3 ZZW 1015,4 10
13.01.2018 14:00:00 8,7 6,3 11 6 ZW 1015,4 10
13.01.2018 13:00:00 9,1 5,6 15 8 WNW 1016,3 8
13.01.2018 12:00:00 11,2 8,4 8 4 WZW 1016,2 10
13.01.2018 11:00:00 8,3 7,2 11 6 ZZW 1016,0 10
13.01.2018 10:00:00 9,3 7,4 11 6 - 1015,1 10
13.01.2018 09:00:00 7,2 6,8 13 7 ZW 1014,9 10
13.01.2018 08:00:00 7,6 7,2 9 5 Z 1014,7 17
13.01.2018 07:00:00 7,9 7,3 4 2 Z 1014,3 10
13.01.2018 06:00:00 8,1 7,7 8 4 ZZO 1014,2 10
13.01.2018 05:00:00 8,4 7,8 11 6 Z 1014,8 10
13.01.2018 04:00:00 9,1 8,0 4 2 - 1014,9 6
13.01.2018 03:00:00 9,2 8,0 15 8 Z 1014,8 7
13.01.2018 02:00:00 9,3 6,6 8 4 ZZO 1014,5 10
13.01.2018 01:00:00 9,9 6,1 18 10 ZZO 1014,7 10
13.01.2018 00:00:00 9,7 6,0 24 13 ZO 1015,0 10
12.01.2018 23:00:00 10,1 6,0 24 13 ZZO 1016,0 10
12.01.2018 22:00:00 10,9 5,6 24 13 ZO 1016,3 10
12.01.2018 21:00:00 10,6 5,4 31 17 Z 1016,8 10
12.01.2018 20:00:00 10,6 5,3 18 10 ZZO 1018,1 10
12.01.2018 19:00:00 10,9 5,8 21 11 Z 1018,2 10
12.01.2018 18:00:00 11,3 6,2 31 17 Z 1018,1 10
12.01.2018 17:00:00 11,6 6,1 18 10 Z 1018,8 10
12.01.2018 16:00:00 12,1 6,2 28 15 ZZW 1019,9 10
12.01.2018 15:00:00 11,8 5,6 22 12 Z 1020,9 10
12.01.2018 14:00:00 10,3 4,4 13 7 ZZO 1022,1 10
12.01.2018 13:00:00 10,4 3,7 13 7 ZZO 1023,9 10
12.01.2018 12:00:00 9,5 3,0 18 10 Z 1024,5 30
12.01.2018 11:00:00 8,0 2,7 21 11 ZZO 1024,1 10
12.01.2018 10:00:00 6,1 2,4 11 6 ZZO 1024,8 10
12.01.2018 09:00:00 6,7 2,2 18 10 ZZO 1024,9 10
12.01.2018 08:00:00 5,9 2,3 18 10 ZZO 1024,6 10
12.01.2018 07:00:00 4,8 2,3 11 6 ZZO 1025,0 10
12.01.2018 06:00:00 3,8 2,3 9 5 ZZO 1025,8 10
12.01.2018 05:00:00 3,3 2,3 9 5 Z 1026,9 10
12.01.2018 04:00:00 3,9 2,7 13 7 Z 1027,3 10
12.01.2018 03:00:00 4,3 2,6 13 7 ZZO 1027,5 10
12.01.2018 02:00:00 4,4 2,9 8 4 Z 1027,8 10
12.01.2018 01:00:00 5,1 3,4 9 5 Z 1028,3 10
12.01.2018 00:00:00 6,3 3,0 9 5 ZW 1028,7 10
11.01.2018 23:00:00 6,7 3,9 9 5 ZZW 1028,6 10
11.01.2018 22:00:00 8,1 4,1 5 3 Z 1028,4 10
11.01.2018 21:00:00 8,9 4,5 8 4 WZW 1028,3 10
11.01.2018 20:00:00 9,8 4,2 8 4 WNW 1028,3 10
11.01.2018 19:00:00 10,0 4,4 2 1 - 1027,8 10
11.01.2018 18:00:00 10,5 4,0 11 6 NW 1027,4 10
11.01.2018 17:00:00 10,5 4,4 11 6 NW 1026,9 10
11.01.2018 16:00:00 11,0 4,3 18 10 NNW 1026,7 10
11.01.2018 15:00:00 11,5 3,3 21 11 NNW 1026,4 10
11.01.2018 14:00:00 11,3 3,9 16 9 NW 1026,4 10
11.01.2018 13:00:00 10,9 3,3 22 12 NNW 1026,6 28
11.01.2018 12:00:00 9,1 5,5 16 9 WNW 1026,6 10
11.01.2018 11:00:00 9,8 5,2 16 9 WNW 1025,9 9
11.01.2018 10:00:00 9,3 3,7 13 7 NW 1025,4 10
11.01.2018 09:00:00 9,0 3,4 22 12 NW 1025,0 30
11.01.2018 08:00:00 9,0 3,3 16 9 WNW 1024,1 10
11.01.2018 07:00:00 8,0 4,6 24 13 NNW 1023,2 10
11.01.2018 06:00:00 8,3 4,5 9 5 NW 1022,3 10
11.01.2018 05:00:00 8,1 4,9 11 6 NW 1022,1 10
11.01.2018 04:00:00 9,1 4,3 21 11 WNW 1021,9 10
11.01.2018 03:00:00 9,6 3,6 21 11 NW 1021,3 10
11.01.2018 02:00:00 9,1 3,5 24 13 NW 1021,3 10
11.01.2018 01:00:00 9,2 4,0 22 12 NW 1021,2 10
11.01.2018 00:00:00 10,0 3,9 24 13 NW 1020,1 10
10.01.2018 23:00:00 7,4 5,5 22 12 WNW 1019,5 10
10.01.2018 22:00:00 8,4 5,5 21 11 W 1018,8 10
10.01.2018 21:00:00 6,8 5,4 16 9 ZW 1019,2 10
10.01.2018 20:00:00 7,3 5,3 21 11 NNW 1019,2 7
10.01.2018 19:00:00 10,0 3,7 18 10 W 1018,2 10
10.01.2018 18:00:00 8,7 4,3 29 16 WNW 1017,9 9
10.01.2018 17:00:00 11,5 3,5 22 12 WNW 1016,8 10
10.01.2018 16:00:00 11,7 2,3 29 16 WNW 1015,5 10
10.01.2018 15:00:00 9,4 5,0 37 20 W 1014,5 10
10.01.2018 14:00:00 9,7 5,6 15 8 W 1013,7 10
10.01.2018 13:00:00 10,3 5,7 26 14 W 1013,6 8
10.01.2018 12:00:00 11,7 4,8 24 13 WNW 1012,8 10
10.01.2018 11:00:00 10,3 7,0 22 12 WZW 1010,9 20
10.01.2018 10:00:00 10,8 8,4 34 18 ZZW 1008,6 10

tt = temperatuur
td = dauwpunt
ff = windsnelheid
dd = windrichting
ppp = luchtdruk
vv = zicht

Weerstations in de omgeving